Regional Weather Roundup
Issued by NWS Sterling, VA

Home | Current Version | Previous Version | Graphics & Text | Print | Product List | Glossary On
Versions: 1 2 3 4 5 6 7 8 9 10 11 12 13 14 15 16 17 18 19 20 21 22 23 24 25 26 27
000
ASUS41 KLWX 192310
RWRLWX

REGIONAL WEATHER ROUNDUP
NATIONAL WEATHER SERVICE BALTIMORE MD/WASHINGTON DC
700 PM EDT SAT APR 19 2014

Note: "FAIR" indicates few or no clouds below 12,000 feet
with no significant weather and/or obstructions to visibility.
 TC=TEMPERATURE CELSIUS

 * =Non NWS site. Station does not report precipitation (e.g. rain,
    snow, etc.), thunder, or fog.

DCZ001-MDZ009-015-VAZ040>042-051-053>054-200000-
WASHINGTON METRO

CITY           SKY/WX    TMP DP  RH WIND       PRES   REMARKS
WASHINGTON NAT CLOUDY    66  31  27 N10       30.24R
DULLES         CLOUDY    63  27  25 NE10      30.25R
ANDREWS AFB    CLOUDY    63  33  32 NE8       30.24R
FT BELVOIR     CLOUDY    66  29  25 VRB3      30.24R
QUANTICO       CLOUDY    62  46  55 S8        30.24R
COLLEGE PARK*  CLOUDY    64  25  22 N8        30.24S
LEESBURG*      CLOUDY    64  32  29 NE10      30.27R
MANASSAS*      CLOUDY    66  32  28 N10       30.23S
GAITHERSBURG*  CLOUDY    61  25  25 N5        30.28S

$$

MDZ006>007-011-014-200000-
BALTIMORE METRO

CITY           SKY/WX    TMP DP  RH WIND       PRES   REMARKS
BWI AIRPORT    CLOUDY    64  24  21 NE10      30.24R
MD SCIENCE CTR   N/A     66  24  20 MISG      30.25R
MARTIN STATE   MOCLDY    66  30  26 N5        30.26
ANNAPOLIS      CLOUDY    63  34  33 NE5       30.24R
FORT MEADE*    CLOUDY    63  32  31 CALM      30.26S

$$

MDZ012-015-019>023-200000-
MARYLAND EASTERN SHORE

CITY           SKY/WX    TMP DP  RH WIND       PRES   REMARKS
OCEAN CITY     CLOUDY    52  38  58 NE7       30.26R
SALISBURY      CLOUDY    58  29  33 E6        30.25R
BAY BRIDGE AP* CLOUDY    63  32  31 NE6       30.24S
CAMBRIDGE*     CLOUDY    63  41  45 CALM      30.23R
EASTON*        CLOUDY    64  37  36 N8        30.27R

$$

MDZ017>025-200000-
SOUTHERN MARYLAND

CITY           SKY/WX    TMP DP  RH WIND       PRES   REMARKS
PATUXENT RIVER CLOUDY    61  37  41 N5        30.23R
ST INIGOES     CLOUDY    60  46  59 E3        30.23R
LEONARDTOWN*   CLOUDY    61  36  39 CALM      30.25S

$$

MDZ003>005-200000-
NORTH CENTRAL MARYLAND

CITY           SKY/WX    TMP DP  RH WIND       PRES   REMARKS
FREDERICK*     CLEAR     61  34  36 NE9       30.30R
HAGERSTOWN APT CLOUDY    62  28  27 E8        30.26R
WESTMINSTER*   CLOUDY    61  21  21 N7        30.28R

$$

MDZ501>502-200000-
WESTERN MARYLAND

CITY           SKY/WX    TMP DP  RH WIND       PRES   REMARKS
OAKLAND*       CLOUDY    54   3  13 NE3       30.27R
CUMBERLAND*    CLOUDY    64  19  17 NE6       30.29R

$$

VAZ025>031-200000-
SHENANDOAH VALLEY

CITY           SKY/WX    TMP DP  RH WIND       PRES   REMARKS
WINCHESTER*    CLOUDY    63  30  29 NE5       30.25R
STAUNTON*      CLOUDY    60  39  45 E5        30.24S

$$

WVZ021-048>050-054>055-200000-
EASTERN WEST VIRGINIA PANHANDLE

CITY           SKY/WX    TMP DP  RH WIND       PRES   REMARKS
MARTINSBURG    CLOUDY    65  24  21 NE6       30.26R
PETERSBURG*    CLOUDY    69  39  33 E6        30.24S

$$

VAZ036>039-050-200000-
CENTRAL FOOTHILLS

CITY           SKY/WX    TMP DP  RH WIND       PRES   REMARKS
CHARLOTTESVILL CLOUDY    63  39  41 E5        30.22S
CULPEPER*      CLOUDY    68  30  24 NE3       30.23S

$$

VAZ055>057-200000-
NORTH AND CENTRAL PIEDMONT

CITY           SKY/WX    TMP DP  RH WIND       PRES   REMARKS
FREDERICKSBRG* CLOUDY    63  41  45 SE7       30.22S
STAFFORD*      CLOUDY    63  40  43 CALM      30.27R

$$

NCZ024-NYZ072-PAZ021-071-VAZ022-071-200000-
OTHER REGIONAL OBSERVATIONS

CITY           SKY/WX    TMP DP  RH WIND       PRES   REMARKS
NEW YORK CITY  PTCLDY    64  20  18 NE8       30.28R
PHILADELPHIA   CLOUDY    65  20  17 N7        30.26S
PITTSBURGH     PTSUNNY   62  19  19 CALM      30.27S
ROANOKE        CLOUDY    60  40  47 SE7       30.23R
RICHMOND       CLOUDY    62  39  42 NE8       30.22S
RALEIGH        CLOUDY    53  43  68 NE9       30.19S

$$

ANZ530>537-200000-
MARINE OBSERVATIONS

STATION/POSITION TIME  TEMP    WIND        PRES
                       AIR SEA DIR/SP/G
                 (UTC) (F)     (DEG/KT/KT) (MB)
THOMAS PT LIGHT  2300   62 54   30/  9/  9 1024.5R
BALT KEY BRIDGE  2300   65      10/ 11/ 12 1024.0F
COVE POINT       2300   59     350/  4/  4 1023.5R
LEWISETTA        2300   60 54   30/  2/  3 1023.3S
SOLOMONS ISLAND  2300      53                N/A
PINEY POINT      2300           80/  1/  2   N/A

$$




USA.gov is the U.S. government's official web portal to all federal, state and local government web resources and services.